Weather History for Fayetteville, AR

Change the Weather History Date:

Saturday, March 30, 2013

  Actual Average Record
Temperature  
Mean Temperature 59 °F 52 °F  
Max Temperature 67 °F 65 °F 80 °F (1967)
Min Temperature 51 °F 40 °F 17 °F (1964)
Degree Days  
Heating Degree Days 6 13  
Month to date heating degree days 635 513  
Since 1 July heating degree days 3706 3816  
Cooling Degree Days 0 0  
Month to date cooling degree days 1 0  
Year to date cooling degree days 1 0  
Growing Degree Days 10 (Base 50)    
Moisture  
Dew Point 54 °F    
Average Humidity 84    
Maximum Humidity 100    
Minimum Humidity 67    
Precipitation  
Precipitation 0.85 in 0.15 in 1.47 in (1998)
Month to date precipitation 4.46 3.80  
Year to date precipitation 10.31 9.45  
Sea Level Pressure  
Sea Level Pressure 29.99 in    
Wind  
Wind Speed 6 mph (South)    
Max Wind Speed 23 mph    
Max Gust Speed 30 mph    
Visibility 9 miles    
Events Rain , Thunderstorm    
T = Trace of Precipitation, MM = Missing Value Source: NWS Daily Summary

Daily Weather History Graph

Daily Weather History Graph

Search for Another Location

Airport:

Trip Planner

Search our weather history database for the weather conditions in past years. The results will help you decide how hot, cold, wet, or windy it might be!

Date:

Astronomy

Mar. 30, 2013 Rise Set
Actual Time 7:05 AM CDT 7:37 PM CDT
Civil Twilight 6:39 AM CDT 8:02 PM CDT
Nautical Twilight 6:09 AM CDT 8:33 PM CDT
Astronomical Twilight 5:38 AM CDT 9:04 PM CDT
Moon 11:36 PM CDT (3/30) 9:08 AM CDT (3/30)
Length of Visible Light 13h 23m
Length of Day
12h 31m
Waning Gibbous, 86% of the Moon is Illuminated
Mar 30
Waning Gibbous
Apr 2
Last Quarter
Apr 10
New
Apr 18
First Quarter
Apr 25
Full

Hourly Weather History & Observations

Time (CDT) Temp. Dew Point Humidity Pressure Visibility Wind Dir Wind Speed Gust Speed Precip Events Conditions
12:53 AM 57.0 °F 54.0 °F 89% 30.11 in 10.0 mi SSE 4.6 mph - N/A   Overcast
1:53 AM 55.9 °F 54.0 °F 93% 30.08 in 10.0 mi SSW 4.6 mph - N/A   Clear
2:11 AM 57.2 °F 53.6 °F 88% 30.10 in 10.0 mi South 8.1 mph - N/A   Mostly Cloudy
2:53 AM 57.0 °F 54.0 °F 89% 30.05 in 10.0 mi SE 8.1 mph - 0.00 in Rain Light Rain
3:01 AM 57.2 °F 53.6 °F 88% 30.08 in 10.0 mi Variable 3.5 mph - 0.01 in Rain Light Rain
3:06 AM 55.4 °F 53.6 °F 94% 30.08 in 10.0 mi Variable 5.8 mph - 0.01 in Rain Light Rain
3:49 AM 55.4 °F 53.6 °F 94% 30.07 in 7.0 mi SSE 4.6 mph - 0.09 in Rain Rain
3:53 AM 55.0 °F 54.0 °F 96% 30.06 in 6.0 mi South 5.8 mph - 0.11 in Rain Rain
4:53 AM 55.0 °F 52.0 °F 89% 30.02 in 9.0 mi Variable 5.8 mph - 0.17 in Rain Light Rain
5:53 AM 53.1 °F 51.1 °F 93% 30.00 in 10.0 mi SSW 5.8 mph - 0.00 in   Clear
6:53 AM 53.1 °F 51.1 °F 93% 30.00 in 10.0 mi Calm Calm - N/A   Mostly Cloudy
7:53 AM 54.0 °F 52.0 °F 93% 30.01 in 10.0 mi SSW 6.9 mph - N/A   Mostly Cloudy
8:16 AM 53.6 °F 51.8 °F 94% 30.04 in 10.0 mi Calm Calm - N/A   Overcast
8:53 AM 54.0 °F 52.0 °F 93% 30.03 in 7.0 mi SSE 3.5 mph - 0.00 in Rain Light Rain
9:42 AM 53.6 °F 51.8 °F 94% 30.09 in 4.0 mi North 18.4 mph 24.2 mph 0.14 in Rain Heavy Rain
9:53 AM 53.1 °F 51.1 °F 93% 30.09 in 5.0 mi North 8.1 mph 21.9 mph 0.19 in Rain Rain
10:53 AM 53.1 °F 53.1 °F 100% 30.07 in 6.0 mi South 6.9 mph - 0.08 in Rain Light Rain
11:53 AM 55.9 °F 52.0 °F 87% 29.99 in 10.0 mi South 5.8 mph - 0.05 in   Partly Cloudy
12:53 PM 59.0 °F 54.0 °F 83% 29.98 in 10.0 mi South 9.2 mph - N/A   Clear
1:53 PM 64.0 °F 54.0 °F 70% 29.96 in 10.0 mi SW 10.4 mph 18.4 mph N/A   Clear
2:53 PM 64.9 °F 55.0 °F 70% 29.93 in 10.0 mi South 15.0 mph - N/A   Partly Cloudy
3:53 PM 66.0 °F 55.9 °F 70% 29.91 in 10.0 mi SSW 9.2 mph 17.3 mph N/A   Scattered Clouds
4:53 PM 66.9 °F 55.9 °F 68% 29.89 in 10.0 mi SSW 10.4 mph - N/A   Mostly Cloudy
5:53 PM 64.0 °F 55.0 °F 73% 29.90 in 10.0 mi SW 8.1 mph - N/A   Overcast
6:53 PM 63.0 °F 55.0 °F 75% 29.90 in 10.0 mi SW 4.6 mph - N/A   Overcast
7:53 PM 62.1 °F 55.9 °F 80% 29.90 in 10.0 mi South 4.6 mph - N/A   Overcast
8:53 PM 61.0 °F 55.0 °F 81% 29.90 in 10.0 mi Calm Calm - N/A   Overcast
9:53 PM 60.1 °F 55.0 °F 83% 29.90 in 10.0 mi Calm Calm - N/A   Mostly Cloudy
10:28 PM 59.0 °F 55.4 °F 88% 29.91 in 10.0 mi South 4.6 mph - N/A Thunderstorm Mostly Cloudy
10:53 PM 61.0 °F 55.0 °F 81% 29.92 in 10.0 mi Calm Calm - 0.00 in Thunderstorm Overcast
11:11 PM 59.0 °F 57.2 °F 94% 29.94 in 2.5 mi ENE 13.8 mph 20.7 mph 0.23 in Rain , Thunderstorm Heavy Thunderstorms and Rain
11:18 PM 60.8 °F 55.4 °F 82% 29.94 in 2.0 mi ESE 9.2 mph 24.2 mph 0.24 in Rain , Thunderstorm Light Thunderstorms and Rain
11:26 PM 60.8 °F 57.2 °F 88% 29.94 in 10.0 mi Variable 5.8 mph - 0.25 in Rain , Thunderstorm Light Thunderstorms and Rain
11:53 PM 60.1 °F 55.0 °F 83% 29.90 in 10.0 mi Calm Calm - 0.25 in   Scattered Clouds